Location: North Runcton
(52.7000°N, 0.4333°E)
Time: 05:05:20
(UTC+00:00)

Cosmos 2084 Rocket - Pass Details

Date: 06 August 2025
Orbit: 530 x 579 km, 62.8° (Epoch: 14 May)

Event Time Altitude Azimuth Distance (km) Brightness Sun altitude
Exits shadow 00:20:54 18° 260° (W) 1,425 5.3 -20.5°
Maximum altitude 00:23:46 46° 328° (NNW) 771 4.3 -20.5°
Drops below altitude 10° 00:27:54 10° 42° (NE) 1,893 6.8 -20.4°
Enters shadow 01:29:28 -60° 248° (WSW) 11,645 10.0 -18.2°
